Tracking 19625 objects as of 26-May-2019
HD Live streaming from Space Station
objects crossing your sky now
Watch Starlink satellites crossing your sky!

SUPERVIEW-1 04

Track SUPERVIEW-1 04 now!
10-day predictions


NORAD ID: 43100
Int'l Code: 2018-002B
Perigee: 520.4 km
Apogee: 539.4 km
Inclination: 97.5 °
Period: 95.1 minutes
Semi major axis: 6900 km
RCS: Unknown
Launch date: January 9, 2018
Source: People's Republic of China (PRC)
Launch site: Taiyaun Space Center, China (TSC)
aabbcc
Your satellite tracking list
Your tracking list is empty




NASA's NSSDC Master Catalog

Two Line Element Set (TLE):
1 43100U 18002B   19145.78788032  .00000079  00000-0  79080-5 0  9997
2 43100  97.5340 224.4545 0013757  23.6667 124.6597 15.14421019 75900
Source of the keplerian elements: AFSPC